World > North America > United States > Ohio

Hourly Bethany, OH Regional Weather

Feedback E-mail the Weather

Quick WX

Bethany, OH Weather Maps

°F °C°F °C
Bethany Weather Map
UTC Time: 6/27/2022, 20:36
Your Time:

Bethany, OH Regional Weather

Expires:202206272100;;292345
ASUS41 KCLE 272012
RWRCLE
OHIO REGIONAL WEATHER ROUNDUP
NATIONAL WEATHER SERVICE WILMINGTON, OH
400 PM EDT MON JUN 27 2022

NOTE: "FAIR" INDICATES FEW OR NO CLOUDS BELOW 12,000 FEET WITH NO
SIGNIFICANT WEATHER AND/OR OBSTRUCTIONS TO VISIBILITY.


OHZ042-051>053-060>062-070>072-077>081-272100-
  SOUTHWEST OHIO
  
CITY           SKY/WX    TMP DP  RH WIND       PRES   REMARKS
CINC-COVINGTON FAIR      79  52  38 NW8       30.18F                  
CINC-LUNKEN    FAIR      80  52  37 VRB6G18   30.17F                  
HAMILTON       FAIR      80  50  34 VRB6      30.18F                  
DAYTON         FAIR      79  49  34 NW9G17    30.17F                  
WRIGHT-PAT AFB FAIR      80  46  29 NW9       30.13F                  
DAYTON GENERAL FAIR      79  46  31 NW10      30.16F                  
WILMINGTON     FAIR      78  48  34 W6        30.17F                  
$$


SKY/WX - Weather  TMP - Temperature  DP - Dew Point  RH - Humidity
WIND - Wind Direction/Speed PRES - Barometric Pressure VSB - Visibility
WCI - Wind Chill Index E13G22 Wind - East Wind 13 mph/Gusts of 22 mph

Trending Headlines

Bethany Radar Loop



Bethany Quick Facts


National Two Day Weather Forecast


E-mail the Bethany Weather Forecast

Voice your opinion or tell us about page issues...